Time,TemperatureF,DewpointF,PressureIn,WindDirection,WindDirectionDegrees,WindSpeedMPH,WindSpeedGustMPH,Humidity,HourlyPrecipIn,Conditions,Clouds,dailyrainin,SoftwareType,DateUTC
2013-09-04 00:14:00,59.5,56.6,29.74,North,0,0.0,-999.0,90,-99.99,,,0.00,Acu-Link.com,2013-09-04 04:14:00,
2013-09-04 00:29:00,59.5,57.2,29.74,WSW,247,0.0,-999.0,92,-99.99,,,0.00,Acu-Link.com,2013-09-04 04:29:00,
2013-09-04 00:44:00,59.4,56.8,29.74,South,180,0.0,-999.0,91,-99.99,,,0.00,Acu-Link.com,2013-09-04 04:44:00,
2013-09-04 01:00:00,59.4,56.5,29.74,ENE,67,0.0,-999.0,90,-99.99,,,0.00,Acu-Link.com,2013-09-04 05:00:00,
2013-09-04 01:15:00,59.2,56.3,29.74,WSW,247,0.0,-999.0,90,-99.99,,,0.00,Acu-Link.com,2013-09-04 05:15:00,
2013-09-04 01:30:00,59.0,56.4,29.74,NNW,337,0.0,-999.0,91,-99.99,,,0.00,Acu-Link.com,2013-09-04 05:30:00,
2013-09-04 01:45:00,58.5,55.9,29.74,North,0,0.0,-999.0,91,-99.99,,,0.00,Acu-Link.com,2013-09-04 05:45:00,
2013-09-04 02:00:00,58.5,55.9,29.74,South,180,1.7,-999.0,91,-99.99,,,0.00,Acu-Link.com,2013-09-04 06:00:00,
2013-09-04 02:16:00,58.5,55.9,29.75,SSW,202,0.0,-999.0,91,-99.99,,,0.00,Acu-Link.com,2013-09-04 06:16:00,
2013-09-04 02:31:00,58.3,55.7,29.74,SSE,157,0.0,-999.0,91,-99.99,,,0.00,Acu-Link.com,2013-09-04 06:31:00,
2013-09-04 02:46:00,58.1,55.5,29.75,WNW,292,0.0,-999.0,91,-99.99,,,0.00,Acu-Link.com,2013-09-04 06:46:00,
2013-09-04 03:02:00,57.9,55.6,29.75,SSE,157,0.0,-999.0,92,-99.99,,,0.00,Acu-Link.com,2013-09-04 07:02:00,
2013-09-04 03:17:00,57.4,55.1,29.76,South,180,0.0,-999.0,92,-99.99,,,0.00,Acu-Link.com,2013-09-04 07:17:00,
2013-09-04 03:32:00,57.2,54.9,29.75,SSE,157,0.0,-999.0,92,-99.99,,,0.00,Acu-Link.com,2013-09-04 07:32:00,
2013-09-04 03:47:00,57.0,55.0,29.75,South,180,0.0,-999.0,93,-99.99,,,0.00,Acu-Link.com,2013-09-04 07:47:00,
2013-09-04 04:02:00,57.0,55.0,29.76,SW,225,0.0,-999.0,93,-99.99,,,0.00,Acu-Link.com,2013-09-04 08:02:00,
2013-09-04 04:18:00,57.0,55.0,29.75,West,270,0.0,-999.0,93,-99.99,,,0.00,Acu-Link.com,2013-09-04 08:18:00,
2013-09-04 04:33:00,57.0,55.0,29.76,North,0,0.0,-999.0,93,-99.99,,,0.00,Acu-Link.com,2013-09-04 08:33:00,
2013-09-04 04:48:00,56.8,55.1,29.76,West,270,0.0,-999.0,94,-99.99,,,0.00,Acu-Link.com,2013-09-04 08:48:00,
2013-09-04 05:03:00,56.7,55.0,29.76,SSW,202,0.0,-999.0,94,-99.99,,,0.00,Acu-Link.com,2013-09-04 09:03:00,
2013-09-04 05:18:00,56.7,55.0,29.78,North,0,0.0,-999.0,94,-99.99,,,0.00,Acu-Link.com,2013-09-04 09:18:00,
2013-09-04 05:34:00,56.7,55.0,29.78,NNE,22,0.0,-999.0,94,-99.99,,,0.00,Acu-Link.com,2013-09-04 09:34:00,
2013-09-04 05:49:00,56.5,54.8,29.79,WSW,247,0.0,-999.0,94,-99.99,,,0.00,Acu-Link.com,2013-09-04 09:49:00,
2013-09-04 06:04:00,56.5,54.8,29.79,SSW,202,0.0,-999.0,94,-99.99,,,0.00,Acu-Link.com,2013-09-04 10:04:00,
2013-09-04 06:19:00,56.3,54.6,29.80,SW,225,0.0,-999.0,94,-99.99,,,0.00,Acu-Link.com,2013-09-04 10:19:00,
2013-09-04 06:35:00,56.3,54.6,29.80,SSE,157,0.0,-999.0,94,-99.99,,,0.00,Acu-Link.com,2013-09-04 10:35:00,
2013-09-04 06:50:00,56.8,55.4,29.81,SSW,202,2.2,-999.0,95,-99.99,,,0.00,Acu-Link.com,2013-09-04 10:50:00,
2013-09-04 07:05:00,57.2,55.8,29.81,ESE,112,2.7,-999.0,95,-99.99,,,0.00,Acu-Link.com,2013-09-04 11:05:00,
2013-09-04 07:21:00,58.1,56.7,29.81,SSW,202,1.7,-999.0,95,-99.99,,,0.00,Acu-Link.com,2013-09-04 11:21:00,
2013-09-04 07:36:00,59.4,57.4,29.82,South,180,2.2,-999.0,93,-99.99,,,0.00,Acu-Link.com,2013-09-04 11:36:00,
2013-09-04 07:51:00,62.6,59.6,29.82,South,180,2.7,-999.0,90,-99.99,,,0.00,Acu-Link.com,2013-09-04 11:51:00,
2013-09-04 08:06:00,63.7,59.8,29.82,West,270,0.0,-999.0,87,-99.99,,,0.00,Acu-Link.com,2013-09-04 12:06:00,
2013-09-04 08:22:00,66.4,61.1,29.83,SSE,157,0.0,-999.0,83,-99.99,,,0.00,Acu-Link.com,2013-09-04 12:22:00,
2013-09-04 08:37:00,66.6,60.6,29.82,West,270,1.7,-999.0,81,-99.99,,,0.00,Acu-Link.com,2013-09-04 12:37:00,
2013-09-04 08:52:00,68.9,60.6,29.82,WNW,292,3.2,-999.0,75,-99.99,,,0.00,Acu-Link.com,2013-09-04 12:52:00,
2013-09-04 09:08:00,68.9,60.3,29.82,West,270,2.2,-999.0,74,-99.99,,,0.00,Acu-Link.com,2013-09-04 13:08:00,
2013-09-04 09:23:00,70.2,60.7,29.83,WNW,292,2.7,-999.0,72,-99.99,,,0.00,Acu-Link.com,2013-09-04 13:23:00,
2013-09-04 09:38:00,70.7,60.4,29.83,WNW,292,2.2,-999.0,70,-99.99,,,0.00,Acu-Link.com,2013-09-04 13:38:00,
2013-09-04 09:54:00,71.6,59.2,29.82,NNW,337,2.7,-999.0,65,-99.99,,,0.00,Acu-Link.com,2013-09-04 13:54:00,
2013-09-04 10:09:00,72.3,58.5,29.82,WNW,292,1.7,-999.0,62,-99.99,,,0.00,Acu-Link.com,2013-09-04 14:09:00,
2013-09-04 10:24:00,73.4,59.1,29.83,WNW,292,2.7,-999.0,61,-99.99,,,0.00,Acu-Link.com,2013-09-04 14:24:00,
2013-09-04 10:39:00,72.9,57.7,29.82,WNW,292,2.7,-999.0,59,-99.99,,,0.00,Acu-Link.com,2013-09-04 14:39:00,
2013-09-04 10:54:00,74.1,58.8,29.82,NW,315,1.7,-999.0,59,-99.99,,,0.00,Acu-Link.com,2013-09-04 14:54:00,
2013-09-04 11:10:00,75.0,58.2,29.82,SSW,202,2.7,-999.0,56,-99.99,,,0.00,Acu-Link.com,2013-09-04 15:10:00,
2013-09-04 11:25:00,74.7,58.4,29.82,NW,315,4.7,-999.0,57,-99.99,,,0.00,Acu-Link.com,2013-09-04 15:25:00,
2013-09-04 11:40:00,74.8,57.5,29.81,WNW,292,2.7,-999.0,55,-99.99,,,0.00,Acu-Link.com,2013-09-04 15:40:00,
2013-09-04 11:56:00,75.9,57.0,29.82,NW,315,3.2,-999.0,52,-99.99,,,0.00,Acu-Link.com,2013-09-04 15:56:00,
2013-09-04 12:11:00,76.8,59.9,29.81,SSW,202,1.7,-999.0,56,-99.99,,,0.00,Acu-Link.com,2013-09-04 16:11:00,
2013-09-04 12:26:00,76.1,59.2,29.81,West,270,1.7,-999.0,56,-99.99,,,0.00,Acu-Link.com,2013-09-04 16:26:00,
2013-09-04 12:42:00,77.4,58.9,29.81,NNW,337,2.7,-999.0,53,-99.99,,,0.00,Acu-Link.com,2013-09-04 16:42:00,
2013-09-04 12:57:00,77.5,59.0,29.80,WNW,292,2.7,-999.0,53,-99.99,,,0.00,Acu-Link.com,2013-09-04 16:57:00,
2013-09-04 13:12:00,78.6,60.5,29.81,West,270,1.1,-999.0,54,-99.99,,,0.00,Acu-Link.com,2013-09-04 17:12:00,
2013-09-04 13:27:00,79.2,60.0,29.80,WNW,292,1.1,-999.0,52,-99.99,,,0.00,Acu-Link.com,2013-09-04 17:27:00,
2013-09-04 13:43:00,78.3,59.2,29.80,NNW,337,2.7,-999.0,52,-99.99,,,0.00,Acu-Link.com,2013-09-04 17:43:00,
2013-09-04 13:58:00,78.1,58.5,29.79,NW,315,2.2,-999.0,51,-99.99,,,0.00,Acu-Link.com,2013-09-04 17:58:00,
2013-09-04 14:13:00,78.4,57.6,29.80,WNW,292,2.2,-999.0,49,-99.99,,,0.00,Acu-Link.com,2013-09-04 18:13:00,
2013-09-04 14:29:00,79.0,57.6,29.79,WNW,292,2.7,-999.0,48,-99.99,,,0.00,Acu-Link.com,2013-09-04 18:29:00,
2013-09-04 14:44:00,79.2,58.9,29.79,WNW,292,0.0,-999.0,50,-99.99,,,0.00,Acu-Link.com,2013-09-04 18:44:00,
2013-09-04 14:59:00,78.6,57.8,29.78,West,270,2.2,-999.0,49,-99.99,,,0.00,Acu-Link.com,2013-09-04 18:59:00,
2013-09-04 15:14:00,78.4,56.5,29.79,WNW,292,3.2,-999.0,47,-99.99,,,0.00,Acu-Link.com,2013-09-04 19:14:00,
2013-09-04 15:30:00,79.3,57.9,29.79,NNW,337,2.7,-999.0,48,-99.99,,,0.00,Acu-Link.com,2013-09-04 19:30:00,
2013-09-04 15:45:00,78.6,57.8,29.80,NW,315,2.7,-999.0,49,-99.99,,,0.00,Acu-Link.com,2013-09-04 19:45:00,
2013-09-04 16:00:00,80.1,58.0,29.79,NNW,337,0.0,-999.0,47,-99.99,,,0.00,Acu-Link.com,2013-09-04 20:00:00,
2013-09-04 16:15:00,79.2,57.8,29.79,WNW,292,1.7,-999.0,48,-99.99,,,0.00,Acu-Link.com,2013-09-04 20:15:00,
2013-09-04 16:31:00,78.3,58.1,29.79,SW,225,1.7,-999.0,50,-99.99,,,0.00,Acu-Link.com,2013-09-04 20:31:00,
2013-09-04 16:46:00,77.9,58.8,29.79,NNE,22,1.1,-999.0,52,-99.99,,,0.00,Acu-Link.com,2013-09-04 20:46:00,
2013-09-04 17:01:00,77.4,58.9,29.79,South,180,1.1,-999.0,53,-99.99,,,0.00,Acu-Link.com,2013-09-04 21:01:00,
2013-09-04 17:17:00,77.2,59.2,29.79,NW,315,0.0,-999.0,54,-99.99,,,0.00,Acu-Link.com,2013-09-04 21:17:00,
2013-09-04 17:32:00,76.5,59.6,29.80,WNW,292,2.2,-999.0,56,-99.99,,,0.00,Acu-Link.com,2013-09-04 21:32:00,
2013-09-04 17:47:00,75.9,59.1,29.80,East,90,1.1,-999.0,56,-99.99,,,0.00,Acu-Link.com,2013-09-04 21:47:00,
2013-09-04 18:02:00,75.2,58.4,29.81,WNW,292,1.1,-999.0,56,-99.99,,,0.00,Acu-Link.com,2013-09-04 22:02:00,
2013-09-04 18:18:00,74.7,58.9,29.80,NNE,22,0.0,-999.0,58,-99.99,,,0.00,Acu-Link.com,2013-09-04 22:18:00,
2013-09-04 18:33:00,73.8,59.0,29.80,SSW,202,2.2,-999.0,60,-99.99,,,0.00,Acu-Link.com,2013-09-04 22:33:00,
2013-09-04 18:48:00,72.9,58.6,29.80,West,270,0.0,-999.0,61,-99.99,,,0.00,Acu-Link.com,2013-09-04 22:48:00,
2013-09-04 19:03:00,72.0,59.6,29.80,South,180,0.0,-999.0,65,-99.99,,,0.00,Acu-Link.com,2013-09-04 23:03:00,
2013-09-04 19:19:00,70.9,58.1,29.82,West,270,0.0,-999.0,64,-99.99,,,0.00,Acu-Link.com,2013-09-04 23:19:00,
2013-09-04 19:34:00,70.0,58.5,29.82,NNW,337,0.0,-999.0,67,-99.99,,,0.00,Acu-Link.com,2013-09-04 23:34:00,
2013-09-04 19:49:00,69.3,57.9,29.82,West,270,0.0,-999.0,67,-99.99,,,0.00,Acu-Link.com,2013-09-04 23:49:00,
2013-09-04 20:05:00,68.5,57.1,29.83,SE,135,0.0,-999.0,67,-99.99,,,0.00,Acu-Link.com,2013-09-05 00:05:00,
2013-09-04 20:20:00,68.0,56.2,29.83,SE,135,0.0,-999.0,66,-99.99,,,0.00,Acu-Link.com,2013-09-05 00:20:00,
2013-09-04 20:35:00,68.0,56.6,29.83,North,0,0.0,-999.0,67,-99.99,,,0.00,Acu-Link.com,2013-09-05 00:35:00,
2013-09-04 20:50:00,67.6,56.7,29.83,SE,135,1.7,-999.0,68,-99.99,,,0.00,Acu-Link.com,2013-09-05 00:50:00,
2013-09-04 21:05:00,66.7,55.8,29.83,SSW,202,0.0,-999.0,68,-99.99,,,0.00,Acu-Link.com,2013-09-05 01:05:00,
2013-09-04 21:20:00,66.2,56.5,29.83,NNE,22,0.0,-999.0,71,-99.99,,,0.00,Acu-Link.com,2013-09-05 01:20:00,
2013-09-04 21:36:00,65.5,57.0,29.83,NNE,22,0.0,-999.0,74,-99.99,,,0.00,Acu-Link.com,2013-09-05 01:36:00,
2013-09-04 21:51:00,64.9,55.7,29.84,North,0,0.0,-999.0,72,-99.99,,,0.00,Acu-Link.com,2013-09-05 01:51:00,
2013-09-04 22:06:00,64.6,56.1,29.84,South,180,0.0,-999.0,74,-99.99,,,0.00,Acu-Link.com,2013-09-05 02:06:00,
2013-09-04 22:21:00,64.6,56.1,29.84,ESE,112,0.0,-999.0,74,-99.99,,,0.00,Acu-Link.com,2013-09-05 02:21:00,
2013-09-04 22:37:00,64.2,55.7,29.84,SSE,157,1.7,-999.0,74,-99.99,,,0.00,Acu-Link.com,2013-09-05 02:37:00,
2013-09-04 22:52:00,63.5,55.1,29.84,SSW,202,1.1,-999.0,74,-99.99,,,0.00,Acu-Link.com,2013-09-05 02:52:00,
2013-09-04 23:07:00,63.1,55.4,29.85,ESE,112,0.0,-999.0,76,-99.99,,,0.00,Acu-Link.com,2013-09-05 03:07:00,
2013-09-04 23:22:00,62.8,55.5,29.83,South,180,2.7,-999.0,77,-99.99,,,0.00,Acu-Link.com,2013-09-05 03:22:00,
2013-09-04 23:38:00,62.8,55.5,29.83,South,180,1.1,-999.0,77,-99.99,,,0.00,Acu-Link.com,2013-09-05 03:38:00,
2013-09-04 23:53:00,63.0,55.7,29.83,South,180,0.0,-999.0,77,-99.99,,,0.00,Acu-Link.com,2013-09-05 03:53:00,